Location: Unspecified
(0.0000°N, 0.0000°E)
Time: 12:39:12
(UTC+02:00)

ARIANE DEB (SPELDA) - Visible Passes

Search period start: 24 July 2016 00:00
Search period end: 03 August 2016 00:00
Orbit: 305 x 33018 km, 3.5° (Epoch: 23 July)

Date Brightness Start Highest point End Pass type
(mag) Time Alt. Az. Time Alt. Az. Time Alt. Az.
24 Jul 5.9 04:12:24 29° ENE 04:12:24 29° ENE 04:22:58 10° E visible
24 Jul 10.2 09:13:47 10° E 11:10:13 18° E 12:17:57 10° E visible
24 Jul 5.0 22:57:02 10° W 23:10:40 43° W 23:10:40 43° W visible
26 Jul 5.4 04:32:55 44° ENE 04:32:55 44° ENE 04:52:27 10° E visible
26 Jul 9.9 08:33:27 10° E 11:31:15 24° E 12:54:50 10° E visible
26 Jul 5.6 23:23:53 10° W 23:31:05 27° W 23:31:05 27° W visible
28 Jul 5.0 04:53:19 61° ENE 04:53:19 61° ENE 13:25:41 10° E visible
28 Jul 6.2 23:48:47 10° W 23:51:22 16° W 23:51:22 16° W visible
30 Jul 4.7 05:13:35 74° N 05:13:35 74° N 13:53:27 10° E visible
01 Aug 4.8 05:33:43 64° NW 05:35:29 77° N 14:19:18 10° E visible
